This is the latest recevied weather packets stored in our database for station/object WW5JC. If no packets are shown the sender has not sent any weather packets the latest 10 day(s).
| Time | Temp. | Humidity | Pressure | Rain* | Wind** | Luminosity | Snow |
|---|---|---|---|---|---|---|---|
| 1778013406 | 27.22° C | 79% | 1006.6 hPa | 0 mm | - | 297 W/m² | - |
| 1778013102 | 27.22° C | 78% | 1006.5 hPa | 0 mm | - | 380 W/m² | - |
| 1778012798 | 26.67° C | 79% | 1006.5 hPa | 0 mm | - | 544 W/m² | - |
| 1778012494 | 26.67° C | 78% | 1006.6 hPa | 0 mm | - | 337 W/m² | - |
| 1778012186 | 26.67° C | 79% | 1006.7 hPa | 0 mm | - | 167 W/m² | - |
| 1778011883 | 26.67° C | 79% | 1006.8 hPa | 0 mm | - | 199 W/m² | - |
| 1778011581 | 26.67° C | 80% | 1006.7 hPa | 0 mm | - | 190 W/m² | - |
| 1778011278 | 26.67° C | 78% | 1006.8 hPa | 0 mm | - | 246 W/m² | - |
| 1778010974 | 26.67° C | 78% | 1006.4 hPa | 0 mm | - | 238 W/m² | - |
| 1778010672 | 26.67° C | 78% | 1006.5 hPa | 0 mm | - | 243 W/m² | - |
| 1778010369 | 26.67° C | 79% | 1006.7 hPa | 0 mm | - | 205 W/m² | - |
| 1778010064 | 26.67° C | 78% | 1006.7 hPa | 0 mm | - | 242 W/m² | - |
| 1778009761 | 26.67° C | 77% | 1006.6 hPa | 0 mm | - | 296 W/m² | - |
| 1778009458 | 26.67° C | 79% | 1006.7 hPa | 0 mm | - | 348 W/m² | - |
| 1778009158 | 26.67° C | 78% | 1006.5 hPa | 0 mm | - | 365 W/m² | - |
| 1778008854 | 26.67° C | 78% | 1006.7 hPa | 0 mm | - | 277 W/m² | - |
| 1778008553 | 27.22° C | 77% | 1006.6 hPa | 0 mm | - | 259 W/m² | - |
| 1778008250 | 27.22° C | 76% | 1006.7 hPa | 0 mm | - | 411 W/m² | - |
| 1778007950 | 27.22° C | 77% | 1006.5 hPa | 0 mm | - | 383 W/m² | - |
| 1778007646 | 27.22° C | 75% | 1006.5 hPa | 0 mm | - | 667 W/m² | - |
| 1778007343 | 26.67° C | 77% | 1006.8 hPa | 0 mm | - | 828 W/m² | - |
| 1778007039 | 26.67° C | 78% | 1006.7 hPa | 0 mm | - | 475 W/m² | - |
| 1778006736 | 26.67° C | 78% | 1006.8 hPa | 0 mm | - | 784 W/m² | - |
| 1778006433 | 26.11° C | 79% | 1006.6 hPa | 0 mm | - | 538 W/m² | - |
| 1778006130 | 26.11° C | 78% | 1006.9 hPa | 0 mm | - | 272 W/m² | - |
* Rain latest hour (hover to see other rain measurements)
** Current wind speed in m/s (hover to see current wind gust speed)